DW7793 Weather Reports


Display with metric or nautical units.
time (UTC)temp
F
wind
direction
speed
MPH
gust
MPH
rain 1hr
in
rain 24hr
in
rain mn
in
humidity
%
barometer
mb
20260504044632 51 128 0.0 0.0 0.00 0.01 0.01 76 1015.9
20260504043040 50 121 0.0 0.0 0.00 0.01 0.01 77 1016.4
20260504041511 51 129 0.0 0.0 0.00 0.01 0.01 76 1016.5
20260504040051 52 274 0.0 0.0 0.00 0.01 0.01 70 1016.6
20260504034622 52 274 0.0 0.0 0.00 0.01 0.01 70 1016.9
20260504033101 52 293 0.0 0.0 0.00 0.01 0.01 71 1016.8
20260504031625 53 293 0.0 0.0 0.00 0.01 0.01 71 1017.0
20260504030030 53 299 0.0 0.0 0.00 0.01 0.01 66 1016.9
20260504024617 54 299 0.0 0.0 0.00 0.01 0.01 65 1016.9
20260504023128 56 299 0.0 0.0 0.00 0.01 0.01 61 1016.9
20260504021536 57 299 0.0 0.0 0.00 0.01 0.01 59 1016.8
20260504020023 57 299 0.0 0.0 0.00 0.01 0.01 58 1016.5
20260504014621 58 284 0.0 0.0 0.00 0.01 0.01 58 1016.2
20260504013009 58 304 0.0 0.0 0.00 0.01 0.01 59 1016.0
20260504011552 58 295 0.0 0.0 0.00 0.01 0.01 58 1016.1
20260504010100 59 295 0.0 0.0 0.00 0.01 0.01 55 1016.3
20260504004506 61 295 0.0 0.0 0.00 0.01 0.01 52 1016.4
20260504003100 62 295 0.0 0.0 0.00 0.01 0.01 51 1016.2
20260504001627 63 237 0.0 0.0 0.00 0.01 0.01 51 1016.3
20260504000115 65 273 0.0 0.0 0.00 0.01 0.01 48 1016.4
20260503234637 66 293 0.0 0.0 0.00 0.01 0.01 46 1016.7
20260503233034 66 53 0.0 0.0 0.00 0.01 0.01 45 1016.8
20260503231612 67 23 0.0 0.0 0.00 0.01 0.01 42 1016.9
20260503230006 67 349 0.0 0.0 0.00 0.01 0.01 42 1016.9
20260503224501 68 65 0.0 2.0 0.00 0.01 0.01 44 1017.0
20260503223038 68 79 0.0 0.0 0.00 0.01 0.01 44 1017.3
20260503221626 70 143 0.0 3.0 0.00 0.01 0.01 40 1017.5
20260503220038 70 263 0.0 0.0 0.00 0.01 0.01 38 1017.7
20260503214625 69 130 0.0 0.0 0.00 0.01 0.01 37 1017.8
20260503213030 71 50 0.0 0.0 0.00 0.01 0.01 38 1018.2
20260503211632 69 271 0.0 1.0 0.00 0.01 0.01 39 1018.3
20260503210105 70 349 0.0 1.0 0.00 0.01 0.01 38 1018.7
20260503204618 70 298 0.0 0.0 0.00 0.01 0.01 39 1018.7
20260503203008 71 300 0.0 3.0 0.00 0.01 0.01 37 1018.9
20260503201522 69 323 0.0 4.0 0.00 0.01 0.01 41 1019.2
20260503200021 69 293 0.0 1.0 0.00 0.01 0.01 40 1019.5
20260503194556 69 266 0.0 1.0 0.00 0.01 0.01 38 1019.9
20260503193113 69 128 0.0 1.0 0.00 0.01 0.01 43 1020.2
20260503191541 68 328 0.0 0.0 0.00 0.01 0.01 40 1020.4
20260503190110 65 147 0.0 5.0 0.00 0.01 0.01 39 1020.5
20260503184617 67 327 0.0 1.0 0.00 0.01 0.01 39 1020.7
20260503183013 68 148 0.0 0.0 0.00 0.01 0.01 44 1021.0
20260503181614 67 30 0.0 0.0 0.00 0.01 0.01 43 1021.0
20260503180129 67 313 0.0 1.0 0.00 0.01 0.01 40 1021.2
20260503174512 65 359 0.0 0.0 0.00 0.01 0.01 45 1021.4
20260503173112 64 15 0.0 0.0 0.00 0.01 0.01 39 1021.6
20260503171502 63 133 0.0 0.0 0.00 0.01 0.01 43 1021.8
20260503160123 59 130 0.0 4.0 0.00 0.01 0.01 45 1022.5
20260503130125 46 145 0.0 0.0 0.00 0.00 0.00 96 1022.8
20260503110122 36 136 0.0 0.0 0.00 0.00 0.00 97 1021.7
20260503090123 39 136 0.0 0.0 0.00 0.00 0.00 96 1021.3
20260503081630 40 136 0.0 0.0 0.00 0.00 0.00 95 1021.2
20260503080109 41 136 0.0 0.0 0.00 0.00 0.00 95 1021.2
20260503071521 44 295 0.0 0.0 0.00 0.00 0.00 93 1021.0